Weather History for Jaffrey, NH

Change the Weather History Date:

Sunday, April 7, 2013

  Actual Average Record
Temperature  
Mean Temperature 37 °F -  
Max Temperature 53 °F 47 °F 66 °F (1997)
Min Temperature 21 °F 27 °F 14 °F (2007)
Degree Days  
Heating Degree Days 28    
Moisture  
Dew Point 24 °F    
Average Humidity 60    
Maximum Humidity 82    
Minimum Humidity 28    
Precipitation  
Precipitation 0.00 in - - ()
Sea Level Pressure  
Sea Level Pressure 30.14 in    
Wind  
Wind Speed 5 mph (SSW)    
Max Wind Speed 18 mph    
Max Gust Speed 33 mph    
Visibility 10 miles    
Events      
Averages and records for this station are not official NWS values.
T = Trace of Precipitation, MM = Missing Value Source: NWS Daily Summary

Daily Weather History Graph

Daily Weather History Graph

Search for Another Location

Airport:

Trip Planner

Search our weather history database for the weather conditions in past years. The results will help you decide how hot, cold, wet, or windy it might be!

Date:

Astronomy

Apr. 07, 2013 Rise Set
Actual Time 6:19 AM EDT 7:21 PM EDT
Civil Twilight 5:50 AM EDT 7:50 PM EDT
Nautical Twilight 5:16 AM EDT 8:24 PM EDT
Astronomical Twilight 4:40 AM EDT 9:01 PM EDT
Moon 4:39 AM EDT (4/7) 4:47 PM EDT (4/7)
Length of Visible Light 13h 59m
Length of Day
13h 01m
Waning Crescent, 8% of the Moon is Illuminated
Apr 7
Waning Crescent
Apr 10
New
Apr 18
First Quarter
Apr 25
Full
May 2
Last Quarter

Hourly Weather History & Observations

Time (EDT) Temp. Windchill Dew Point Humidity Pressure Visibility Wind Dir Wind Speed Gust Speed Precip Events Conditions
12:52 AM 24.1 °F - 17.1 °F 75% 30.33 in 10.0 mi Calm Calm - N/A   Clear
1:52 AM 23.0 °F - 16.0 °F 74% 30.32 in 10.0 mi Calm Calm - N/A   Clear
2:52 AM 23.0 °F - 16.0 °F 74% 30.30 in 10.0 mi Calm Calm - N/A   Clear
3:52 AM 21.9 °F - 16.0 °F 78% 30.28 in 10.0 mi Calm Calm - N/A   Clear
4:52 AM 21.9 °F - 16.0 °F 78% 30.28 in 10.0 mi Calm Calm - N/A   Clear
5:52 AM 23.0 °F - 16.0 °F 74% 30.27 in 10.0 mi Calm Calm - N/A   Scattered Clouds
6:52 AM 23.0 °F - 17.1 °F 78% 30.30 in 10.0 mi Calm Calm - N/A   Clear
7:52 AM 28.9 °F - 19.0 °F 67% 30.31 in 10.0 mi Calm Calm - N/A   Clear
8:52 AM 37.9 °F 31.5 °F 19.9 °F 48% 30.28 in 10.0 mi SSW 9.2 mph - N/A   Mostly Cloudy
9:52 AM 39.9 °F 33.9 °F 17.1 °F 40% 30.25 in 10.0 mi South 9.2 mph - N/A   Overcast
10:52 AM 41.0 °F 33.9 °F 16.0 °F 36% 30.23 in 10.0 mi SSW 12.7 mph - 0.00 in   Overcast
12:52 PM 48.0 °F - 19.9 °F 33% 30.13 in 10.0 mi South 18.4 mph 28.8 mph N/A   Partly Cloudy
1:52 PM 50.0 °F - 18.0 °F 28% 30.10 in 10.0 mi South 18.4 mph 29.9 mph N/A   Partly Cloudy
2:52 PM 52.0 °F - 24.1 °F 34% 30.06 in 10.0 mi South 17.3 mph 26.5 mph N/A   Clear
3:52 PM 53.1 °F - 26.1 °F 35% 30.02 in 10.0 mi South 18.4 mph 33.4 mph N/A   Clear
4:52 PM 52.0 °F - 26.1 °F 37% 30.01 in 10.0 mi SSW 13.8 mph 26.5 mph N/A   Clear
5:52 PM 50.0 °F - 27.0 °F 41% 30.04 in 10.0 mi SSW 13.8 mph 26.5 mph N/A   Mostly Cloudy
6:52 PM 48.0 °F - 30.0 °F 50% 30.03 in 10.0 mi SSW 10.4 mph 18.4 mph 0.00 in   Overcast
7:52 PM 45.0 °F 39.3 °F 30.9 °F 58% 30.02 in 10.0 mi South 11.5 mph - N/A   Clear
8:52 PM 44.1 °F 40.1 °F 30.9 °F 60% 30.03 in 10.0 mi SSW 6.9 mph - N/A   Clear
9:52 PM 43.0 °F 38.2 °F 35.1 °F 74% 30.01 in 10.0 mi South 8.1 mph - N/A   Clear
10:27 PM 42.8 °F 38.6 °F 35.6 °F 76% 29.98 in 10.0 mi South 6.9 mph 17.3 mph N/A   Mostly Cloudy
10:52 PM 43.0 °F 37.2 °F 37.0 °F 80% 30.01 in 10.0 mi SSW 10.4 mph - N/A   Overcast
11:48 PM 42.8 °F 38.0 °F 37.4 °F 81% 29.97 in 10.0 mi SSW 8.1 mph - N/A   Scattered Clouds
11:52 PM 43.0 °F 37.7 °F 37.9 °F 82% 30.00 in 10.0 mi SSW 9.2 mph - N/A   Partly Cloudy